Simultaneous Nadir Overpasses (SNOs) Predictions

Prediction of SNOs between FY3D and AQUA Satellite Orbit:

Table of predicted SNOs for the next 14.0 days since TLE Epoch: 11/27/2021
Index Date (FY3D) Time (FY3D) Lat,Lon (FY3D) SZA (FY3D ) Date (AQUA) Time (AQUA) Lat,Lon (AQUA) SZA (AQUA ) Distance(km) Time Diff (sec)
1 11/28/2021 14:40:02 -71.90, 137.66 86.80 11/28/2021 14:41:03 -71.91, 137.60 86.79 2.31 61
2 11/28/2021 15:30:11 69.90, -51.66 91.25 11/28/2021 15:29:54 69.90, -51.64 91.24 1.01 17
3 12/01/2021 06:07:16 71.76, 86.10 93.51 12/01/2021 06:08:04 71.77, 86.07 93.51 1.43 48
4 12/01/2021 06:57:08 -69.02,-102.18 89.18 12/01/2021 06:56:39 -69.03,-102.23 89.18 1.95 29
5 12/03/2021 21:34:24 -71.40, 34.97 86.48 12/03/2021 21:34:58 -71.41, 34.93 86.47 1.49 34
6 12/03/2021 22:24:31 69.30,-154.37 91.46 12/03/2021 22:23:47 69.29,-154.31 91.45 2.52 44
7 12/06/2021 13:01:42 71.42, -16.87 93.87 12/06/2021 13:02:00 71.41, -16.83 93.87 1.45 18
8 12/06/2021 13:51:31 -68.49, 154.93 89.00 12/06/2021 13:50:32 -68.49, 154.95 89.01 0.85 59
9 12/09/2021 03:42:30 81.14, 69.45 107.30 12/09/2021 03:43:43 81.63, 70.16 107.51 56.21 73
10 12/09/2021 04:28:54 -71.13, -68.17 86.14 12/09/2021 04:28:55 -71.12, -68.10 86.15 2.54 1



Historial Predications of SNOs between FY3D and AQUA
